map of MBX home
MBX - Airport
Location
City:  Maribor, Slovenia
ICAO:LJMB
IATA:MBX

Details
Type:Airport (Aerodrome, Airfield)
Use:Public/Civil, International (customs port of entry)
Latitude:4628'47"N (46.479861)
Longitude:1541'10"E (15.686131)
Datum:WGS 1984
Elevation:876 ft (267 m)
Variation:4.19E (WMM2015v2 magnetic declination)
0.15 annual change
Runways:2
Longest:8202 × 148 ft (2500 × 45 m), paved

Time
Time Zone:UTC+1 (DST+2)
Local Time:

Weather
METAR:LJMB 041400Z 12009KT 080V160 9999 SCT035 06/M02 Q1028
TAF:LJMB 041400Z 0415/0515 10006KT 9999 FEW035
BECMG 0416/0418 VRB03KT
TEMPO 0416/0501 BKN030
BECMG 0502/0505 FEW020 SCT060

Related Locations
Nearby:
Farthest:CHT: 11819 mi / 19020 km
Waitangi [Tuuta], CIT, NZ

Find:

   beyond  
but within

Other Information
Maps:
NOTAMs:
Links:
Sources:

  
  • flag of Slovenia
  

Sectional Chart

Flight Planning
at skyvector.com

Satellite Image

Google Maps Satellite view

 

Copyright © 2004-2019 Karl L. Swartz. All rights reserved.
The Great Circle Mapper name and logo are trademarks of the Great Circle Mapper.
All other trademarks mentioned herein belong to their respective owners.
Please see credits for attibutions and further copyright information.

  Follow gcmap on Facebook Follow gcmap on Twitter GCmap on LinkedIn

hCard Microformat

Geo Microformat